User: anonymous   Login
Location: Newark
(50.4348°N, 30.5552°E)
Time: 11:51:00
(UTC+00:00)
Language:

Envisat - Orbit

View from above orbital plane
View from above orbital plane
View from above satellite
View from above satellite

Ground track
Ground track

The orbit data is extracted from the following two-line orbital elements,

1 27386U 02009A   20018.08263402  .00000002  00000-0  13956-4 0  9993
2 27386  98.1400  33.0677 0001191  87.2758 340.3651 14.37968795936868
Epoch (UTC): 18 January 2020 01:58:59
Eccentricity: 0.0001191
inclination: 98.1400°
perigee height: 764 km
apogee height: 766 km
right ascension of ascending node: 33.0677°
argument of perigee: 87.2758°
revolutions per day: 14.37968795
mean anomaly at epoch: 340.3651°
orbit number at epoch: 93686

The dashed part of the orbit path shows where the satellite is in the earth's shadow,  

DLR